Dades meteomassalio
Diari Summary for Nil La, TWC- Units:  Metric    English   Both
« Previous Day
Next Day »
Diari Semanal Mensual Anual Personalitzat
  Maxima: Minima: Mijana:
Temperatura: -17.8 °C -15.6 °C -14.3 °C
Rosada: -17.8 °C -17.7 °C -16.9 °C
Humitat: Humidity % 65 % 72 %
Velocitat del vent: 0 km/h 0 km/h 32.7 km/h
Racha vent: 0 km/h - -
Vent:- - WNW
Pressio: 0 hPa 34750.5 hPa -
Pluja: 0 mm    
Historical Graphs
 
 
Tabular Data for Nil La, TWC-
Time Temperature Dew Point Pressure Wind Wind Speed Wind Gust Humidity Rainfall Rate (Hourly) solar Conditions
-17.8 °C -17.8 °C 0 hPa Calm     Humidity % 0 mm SolarRadiationWatts/m^2 W/m2 Conditions
00:00 -13.8 °C -16.5 °C 34784.4 hPa West 29.8 km/h 29.8 km/h 71 % 0 mm 0.0 W/m2 RA
00:05 -13.8 °C -16.5 °C 34797.9 hPa West 29.8 km/h 29.8 km/h 71 % 0 mm 0.0 W/m2 CLR
00:10 -14.1 °C -16.8 °C 34784.4 hPa WNW 26.9 km/h 26.9 km/h 71 % 0 mm 0.0 W/m2 CLR
00:15 -14.1 °C -16.8 °C 34784.4 hPa West 25.9 km/h 25.9 km/h 71 % 0 mm 0.0 W/m2 CLR
00:20 -14.1 °C -16.8 °C 34784.4 hPa NW 38.8 km/h 38.8 km/h 71 % 0 mm 0.0 W/m2 CLR
00:25 -14.1 °C -16.8 °C 34784.4 hPa NW 44.7 km/h 44.7 km/h 71 % 0 mm 0.0 W/m2 CLR
00:30 -14.1 °C -16.8 °C 34784.4 hPa WNW 47.6 km/h 47.6 km/h 71 % 0 mm 0.0 W/m2 CLR
00:35 -14.1 °C -16.8 °C 34784.4 hPa NW 35.7 km/h 35.7 km/h 71 % 0 mm 0.0 W/m2 CLR
00:40 -14.1 °C -16.8 °C 34784.4 hPa WNW 35.7 km/h 35.7 km/h 71 % 0 mm 0.0 W/m2 CLR
00:45 -14.1 °C -16.8 °C 34784.4 hPa NW 29.8 km/h 29.8 km/h 71 % 0 mm 0.0 W/m2 CLR
00:50 -14.1 °C -16.8 °C 34784.4 hPa NW 31.1 km/h 31.1 km/h 71 % 0 mm 0.0 W/m2 CLR
00:55 -14.1 °C -16.8 °C 34784.4 hPa WNW 44.7 km/h 44.7 km/h 71 % 0 mm 0.0 W/m2 CLR
01:00 -14.1 °C -16.8 °C 34784.4 hPa NW 32.8 km/h 32.8 km/h 71 % 0 mm 0.0 W/m2 CLR
01:05 -14.1 °C -16.8 °C 34784.4 hPa NW 35.7 km/h 35.7 km/h 71 % 0 mm 0.0 W/m2 CLR
01:10 -14.1 °C -16.8 °C 34784.4 hPa NW 38.8 km/h 38.8 km/h 71 % 0 mm 0.0 W/m2 CLR
01:15 -14.4 °C -17.2 °C 34784.4 hPa WNW 38.8 km/h 38.8 km/h 70 % 0 mm 0.0 W/m2 CLR
01:20 -14.1 °C -16.9 °C 34784.4 hPa WNW 41.7 km/h 41.7 km/h 70 % 0 mm 0.0 W/m2 CLR
01:25 -14.4 °C -17.2 °C 34784.4 hPa WNW 33.6 km/h 33.6 km/h 70 % 0 mm 0.0 W/m2 CLR
01:30 -14.4 °C -17.2 °C 34784.4 hPa West 35.7 km/h 35.7 km/h 70 % 0 mm 0.0 W/m2 CLR
01:35 -14.4 °C -17.2 °C 34784.4 hPa WNW 29.8 km/h 29.8 km/h 70 % 0 mm 0.0 W/m2 CLR
01:40 -14.4 °C -17.1 °C 34784.4 hPa WNW 29.8 km/h 29.8 km/h 71 % 0 mm 0.0 W/m2 CLR
01:45 -14.4 °C -17.1 °C 34784.4 hPa WNW 29.8 km/h 29.8 km/h 71 % 0 mm 0.0 W/m2 CLR
01:50 -14.4 °C -17.1 °C 34784.4 hPa WNW 25.9 km/h 25.9 km/h 71 % 0 mm 0.0 W/m2 CLR
01:56 -14.4 °C -17.1 °C 34784.4 hPa WNW 32.8 km/h 32.8 km/h 71 % 0 mm 0.0 W/m2 CLR
02:01 -14.4 °C -17.1 °C 34784.4 hPa WNW 44.7 km/h 44.7 km/h 71 % 0 mm 0.0 W/m2 CLR
02:06 -14.4 °C -17.1 °C 34774.2 hPa WNW 44.7 km/h 44.7 km/h 71 % 0 mm 0.0 W/m2 CLR
02:11 -14.4 °C -17.1 °C 34774.2 hPa WNW 44.7 km/h 44.7 km/h 71 % 0 mm 0.0 W/m2 CLR
02:16 -14.4 °C -17.2 °C 34774.2 hPa WNW 29.8 km/h 29.8 km/h 70 % 0 mm 0.0 W/m2 CLR
02:21 -14.4 °C -17.2 °C 34774.2 hPa WNW 38.8 km/h 38.8 km/h 70 % 0 mm 0.0 W/m2 CLR
02:26 -14.4 °C -17.2 °C 34774.2 hPa West 20.9 km/h 20.9 km/h 70 % 0 mm 0.0 W/m2 CLR
02:31 -14.4 °C -17.1 °C 34774.2 hPa WNW 33.6 km/h 33.6 km/h 71 % 0 mm 0.0 W/m2 CLR
02:36 -14.4 °C -17.1 °C 34774.2 hPa NW 35.7 km/h 35.7 km/h 71 % 0 mm 0.0 W/m2 CLR
02:41 -14.4 °C -17.1 °C 34774.2 hPa WNW 26.9 km/h 26.9 km/h 71 % 0 mm 0.0 W/m2 CLR
02:46 -14.4 °C -17.1 °C 34774.2 hPa WNW 29.8 km/h 29.8 km/h 71 % 0 mm 0.0 W/m2 CLR
02:51 -14.4 °C -17.1 °C 34774.2 hPa WNW 26.9 km/h 26.9 km/h 71 % 0 mm 0.0 W/m2 CLR
02:57 -14.4 °C -17.1 °C 34774.2 hPa NW 41.7 km/h 41.7 km/h 71 % 0 mm 0.0 W/m2 CLR
03:02 -14.4 °C -17.2 °C 34774.2 hPa West 31.1 km/h 31.1 km/h 70 % 0 mm 0.0 W/m2 CLR
03:07 -14.7 °C -17.4 °C 34774.2 hPa NW 29.8 km/h 29.8 km/h 71 % 0 mm 0.0 W/m2 CLR
03:12 -14.7 °C -17.5 °C 34760.7 hPa WNW 26.9 km/h 26.9 km/h 70 % 0 mm 0.0 W/m2 CLR
03:17 -14.7 °C -17.4 °C 34760.7 hPa WNW 29.8 km/h 29.8 km/h 71 % 0 mm 0.0 W/m2 CLR
03:22 -14.7 °C -17.4 °C 34760.7 hPa West 20.9 km/h 20.9 km/h 71 % 0 mm 0.0 W/m2 CLR
03:27 -14.7 °C -17.3 °C 34760.7 hPa WNW 35.7 km/h 35.7 km/h 72 % 0 mm 0.0 W/m2 CLR
03:32 -14.7 °C -17.3 °C 34760.7 hPa NW 44.7 km/h 44.7 km/h 72 % 0 mm 0.0 W/m2 CLR
03:37 -14.7 °C -17.3 °C 34760.7 hPa West 26.9 km/h 26.9 km/h 72 % 0 mm 0.0 W/m2 CLR
03:42 -14.7 °C -17.3 °C 34760.7 hPa West 29.8 km/h 29.8 km/h 72 % 0 mm 0.0 W/m2 CLR
03:47 -14.7 °C -17.3 °C 34760.7 hPa West 29.8 km/h 29.8 km/h 72 % 0 mm 0.0 W/m2 CLR
03:52 -14.7 °C -17.2 °C 34760.7 hPa WNW 29.8 km/h 29.8 km/h 73 % 0 mm 0.0 W/m2 CLR
03:57 -14.7 °C -17.2 °C 34760.7 hPa WNW 38.8 km/h 38.8 km/h 73 % 0 mm 0.0 W/m2 CLR
04:02 -14.7 °C -17.2 °C 34750.5 hPa WNW 38.8 km/h 38.8 km/h 73 % 0 mm 0.0 W/m2 CLR
04:07 -14.7 °C -17.2 °C 34750.5 hPa WNW 38.8 km/h 38.8 km/h 73 % 0 mm 0.0 W/m2 CLR
04:12 -14.7 °C -17.1 °C 34750.5 hPa NW 31.1 km/h 31.1 km/h 74 % 0 mm 0.0 W/m2 CLR
04:17 -14.7 °C -17.2 °C 34750.5 hPa WNW 35.7 km/h 35.7 km/h 73 % 0 mm 0.0 W/m2 CLR
04:22 -14.7 °C -17.2 °C 34750.5 hPa WNW 44.7 km/h 44.7 km/h 73 % 0 mm 0.0 W/m2 CLR
04:27 -14.7 °C -17.2 °C 34750.5 hPa WNW 44.7 km/h 44.7 km/h 73 % 0 mm 0.0 W/m2 CLR
04:32 -14.7 °C -17.2 °C 34750.5 hPa WNW 50.7 km/h 50.7 km/h 73 % 0 mm 0.0 W/m2 CLR
04:37 -14.7 °C -17.1 °C 34750.5 hPa West 29.8 km/h 29.8 km/h 74 % 0 mm 0.0 W/m2 CLR
04:42 -14.7 °C -17.1 °C 34750.5 hPa NW 38.8 km/h 38.8 km/h 74 % 0 mm 0.0 W/m2 CLR
04:47 -14.7 °C -17.1 °C 34750.5 hPa West 29.8 km/h 29.8 km/h 74 % 0 mm 0.0 W/m2 CLR
04:52 -14.7 °C -17.1 °C 34750.5 hPa WNW 38.8 km/h 38.8 km/h 74 % 0 mm 0.0 W/m2 CLR
04:57 -14.7 °C -17.1 °C 34750.5 hPa WNW 33.6 km/h 33.6 km/h 74 % 0 mm 0.0 W/m2 CLR
05:02 -14.4 °C -16.8 °C 34750.5 hPa WNW 29.8 km/h 29.8 km/h 74 % 0 mm 0.0 W/m2 CLR
05:07 -14.4 °C -16.8 °C 34750.5 hPa West 36.2 km/h 36.2 km/h 74 % 0 mm 0.0 W/m2 CLR
05:12 -14.4 °C -16.8 °C 34750.5 hPa WNW 32.8 km/h 32.8 km/h 74 % 0 mm 0.0 W/m2 CLR
05:17 -14.4 °C -16.8 °C 34750.5 hPa WNW 26.9 km/h 26.9 km/h 74 % 0 mm 0.0 W/m2 CLR
05:22 -14.4 °C -16.8 °C 34750.5 hPa WNW 26.9 km/h 26.9 km/h 74 % 0 mm 0.0 W/m2 CLR
05:27 -14.4 °C -16.8 °C 34750.5 hPa West 29.8 km/h 29.8 km/h 74 % 0 mm 0.0 W/m2 CLR
05:32 -14.4 °C -16.8 °C 34750.5 hPa NNW 23.3 km/h 23.3 km/h 74 % 0 mm 0.0 W/m2 CLR
05:37 -14.4 °C -16.7 °C 34750.5 hPa West 38.8 km/h 38.8 km/h 75 % 0 mm 0.0 W/m2 CLR
05:42 -14.4 °C -16.7 °C 34750.5 hPa NW 32.8 km/h 32.8 km/h 75 % 0 mm 0.0 W/m2 CLR
05:47 -14.7 °C -17 °C 34750.5 hPa NW 23.8 km/h 23.8 km/h 75 % 0 mm 0.0 W/m2 CLR
05:52 -14.7 °C -17 °C 34750.5 hPa WNW 29.8 km/h 29.8 km/h 75 % 0 mm 0.0 W/m2 CLR
05:57 -14.7 °C -17 °C 34750.5 hPa WNW 29.8 km/h 29.8 km/h 75 % 0 mm 0.0 W/m2 CLR
06:02 -14.7 °C -16.8 °C 34750.5 hPa NW 41.7 km/h 41.7 km/h 76 % 0 mm 0.0 W/m2 CLR
06:07 -14.7 °C -16.8 °C 34750.5 hPa NW 47.6 km/h 47.6 km/h 76 % 0 mm 0.0 W/m2 CLR
06:12 -14.7 °C -16.8 °C 34750.5 hPa NNW 32.8 km/h 32.8 km/h 76 % 0 mm 0.0 W/m2 CLR
06:17 -14.7 °C -16.8 °C 34750.5 hPa NW 31.1 km/h 31.4 km/h 76 % 0 mm 0.0 W/m2 CLR
06:22 -14.7 °C -16.8 °C 34750.5 hPa WNW 26.9 km/h 26.9 km/h 76 % 0 mm 0.0 W/m2 CLR
06:27 -14.7 °C -16.8 °C 34760.7 hPa West 26.9 km/h 26.9 km/h 76 % 0 mm 0.0 W/m2 CLR
06:32 -14.7 °C -16.8 °C 34760.7 hPa WNW 15 km/h 15 km/h 76 % 0 mm 0.0 W/m2 CLR
06:37 -15 °C -17.2 °C 34750.5 hPa WNW 11.9 km/h 11.9 km/h 76 % 0 mm 0.0 W/m2 CLR
06:42 -15 °C -17.1 °C 34750.5 hPa West 20.9 km/h 20.9 km/h 77 % 0 mm 0.0 W/m2 CLR
06:47 -15.3 °C -17.3 °C 34750.5 hPa WNW 26.9 km/h 26.9 km/h 77 % 0 mm 0.0 W/m2 CLR
06:52 -15.3 °C -17.3 °C 34750.5 hPa WNW 23.8 km/h 23.8 km/h 77 % 0 mm 0.0 W/m2 CLR
06:57 -15.3 °C -17.3 °C 34750.5 hPa West 23.8 km/h 23.8 km/h 77 % 0 mm 0.0 W/m2 CLR
07:03 -15.3 °C -17.3 °C 34750.5 hPa WNW 23.8 km/h 23.8 km/h 77 % 0 mm 0.0 W/m2 CLR
07:08 -15.3 °C -17.3 °C 34750.5 hPa NW 23.8 km/h 23.8 km/h 77 % 0 mm 0.0 W/m2 CLR
07:13 -15.3 °C -17.3 °C 34750.5 hPa WNW 20.8 km/h 20.8 km/h 77 % 0 mm 0.0 W/m2 CLR
07:18 -15 °C -16.9 °C 34750.5 hPa West 26.9 km/h 26.9 km/h 78 % 0 mm 0.0 W/m2 CLR
07:23 -15.3 °C -17.3 °C 34750.5 hPa NW 25.9 km/h 25.9 km/h 78 % 0 mm 0.0 W/m2 CLR
07:28 -15.3 °C -17.3 °C 34760.7 hPa NW 26.9 km/h 26.9 km/h 78 % 0 mm 0.0 W/m2 CLR
07:33 -15.3 °C -17.3 °C 34760.7 hPa NW 26.9 km/h 26.9 km/h 77 % 0 mm 0.0 W/m2 CLR
07:38 -15.3 °C -17.3 °C 34760.7 hPa WNW 26.9 km/h 26.9 km/h 77 % 0 mm 0.0 W/m2 CLR
07:43 -15.3 °C -17.3 °C 34760.7 hPa WNW 29.8 km/h 29.8 km/h 78 % 0 mm 0.0 W/m2 OVC
07:48 -15.3 °C -17.3 °C 34760.7 hPa West 29.8 km/h 29.8 km/h 78 % 0 mm 0.0 W/m2 OVC
07:53 -15.3 °C -17.3 °C 34760.7 hPa WNW 17.9 km/h 17.9 km/h 78 % 0 mm 5.0 W/m2 OVC
07:58 -15.3 °C -17.3 °C 34760.7 hPa WNW 17.9 km/h 17.9 km/h 78 % 0 mm 9.0 W/m2 BKN
08:03 -15.3 °C -17.3 °C 34760.7 hPa NW 29.8 km/h 29.8 km/h 78 % 0 mm 11.0 W/m2 BKN
08:08 -15.3 °C -17.3 °C 34774.2 hPa WNW 23.3 km/h 23.3 km/h 78 % 0 mm 14.0 W/m2 BKN
08:13 -15.6 °C -17.6 °C 34774.2 hPa WNW 9 km/h 9 km/h 78 % 0 mm 16.0 W/m2 BKN
08:18 -15.6 °C -17.6 °C 34774.2 hPa WNW 20.9 km/h 20.9 km/h 78 % 0 mm 19.0 W/m2 BKN
08:23 -15.6 °C -17.6 °C 34774.2 hPa NW 20.9 km/h 20.9 km/h 78 % 0 mm 26.0 W/m2 BKN
08:28 -15.6 °C -17.7 °C 34774.2 hPa WNW 29.8 km/h 29.8 km/h 77 % 0 mm 35.0 W/m2 BKN
08:33 -15.3 °C -17.3 °C 34774.2 hPa West 9 km/h 9 km/h 77 % 0 mm 44.0 W/m2 BKN
08:38 -15 °C -17.1 °C 34774.2 hPa Calm   0.5 km/h 77 % 0 mm 56.0 W/m2 SCT
08:43 -15 °C -17.1 °C 34774.2 hPa WNW 20.9 km/h 20.9 km/h 77 % 0 mm 76.0 W/m2 FEW
08:48 -15 °C -17.2 °C 34774.2 hPa NW 26.9 km/h 26.9 km/h 76 % 0 mm 90.0 W/m2 CLR
08:53 -14.7 °C -16.8 °C 34774.2 hPa WNW 23.8 km/h 23.8 km/h 76 % 0 mm 109.0 W/m2 CLR
08:58 -14.7 °C -17 °C 34774.2 hPa WNW 32.8 km/h 32.8 km/h 75 % 0 mm 125.0 W/m2 CLR
09:03 -14.7 °C -17 °C 34774.2 hPa WNW 29.8 km/h 29.8 km/h 75 % 0 mm 120.0 W/m2 CLR
09:08 -14.4 °C -16.8 °C 34774.2 hPa WNW 38.8 km/h 38.8 km/h 74 % 0 mm 160.0 W/m2 CLR
09:13 -14.4 °C -16.8 °C 34774.2 hPa NW 35.7 km/h 35.7 km/h 74 % 0 mm 134.0 W/m2 CLR
09:18 -14.4 °C -16.9 °C 34774.2 hPa West 41.7 km/h 41.7 km/h 73 % 0 mm 199.0 W/m2 CLR
09:23 -14.1 °C -16.6 °C 34774.2 hPa NW 35.7 km/h 35.7 km/h 73 % 0 mm 214.0 W/m2 CLR
09:28 -14.1 °C -16.7 °C 34774.2 hPa WNW 29.8 km/h 29.8 km/h 72 % 0 mm 232.0 W/m2 CLR
09:33 -14.1 °C -16.6 °C 34774.2 hPa WNW 35.7 km/h 35.7 km/h 73 % 0 mm 248.0 W/m2 CLR
09:38 -14.1 °C -16.7 °C 34774.2 hPa WNW 32.8 km/h 32.8 km/h 72 % 0 mm 267.0 W/m2 CLR
09:43 -14.1 °C -16.7 °C 34774.2 hPa NW 32.8 km/h 32.8 km/h 72 % 0 mm 283.0 W/m2 CLR
09:48 -13.8 °C -16.4 °C 34784.4 hPa NNW 41.4 km/h 41.4 km/h 72 % 0 mm 320.0 W/m2 CLR
09:53 -13.8 °C -16.4 °C 34784.4 hPa WNW 35.7 km/h 35.7 km/h 72 % 0 mm 334.0 W/m2 CLR
09:58 -13.8 °C -16.5 °C 34784.4 hPa NW 35.7 km/h 35.7 km/h 71 % 0 mm 346.0 W/m2 CLR
10:03 -13.4 °C -16.2 °C 34774.2 hPa West 35.7 km/h 35.7 km/h 71 % 0 mm 359.0 W/m2 CLR
10:08 -13.4 °C -16.2 °C 34774.2 hPa NW 50.7 km/h 50.7 km/h 71 % 0 mm 376.0 W/m2 CLR
10:14 -13.4 °C -16.2 °C 34774.2 hPa NNW 47.6 km/h 47.6 km/h 71 % 0 mm 371.0 W/m2 CLR
10:19 -13.4 °C -16.2 °C 34774.2 hPa NW 47.6 km/h 47.6 km/h 71 % 0 mm 387.0 W/m2 CLR
10:24 -13.2 °C -15.9 °C 34784.4 hPa NW 44.7 km/h 44.7 km/h 71 % 0 mm 415.0 W/m2 CLR
10:29 -13.2 °C -16 °C 34774.2 hPa NNW 44.7 km/h 44.7 km/h 70 % 0 mm 425.0 W/m2 CLR
10:34 -13.2 °C -16 °C 34784.4 hPa NW 38.8 km/h 38.8 km/h 70 % 0 mm 452.0 W/m2 CLR
10:39 -13.2 °C -16.1 °C 34774.2 hPa NW 47.6 km/h 47.6 km/h 69 % 0 mm 464.0 W/m2 CLR
10:44 -13.2 °C -16.1 °C 34774.2 hPa NNW 44.7 km/h 44.7 km/h 69 % 0 mm 397.0 W/m2 CLR
10:49 -12.8 °C -15.8 °C 34774.2 hPa NNW 53.6 km/h 53.6 km/h 69 % 0 mm 536.0 W/m2 CLR
10:54 -12.8 °C -15.9 °C 34774.2 hPa WNW 29.8 km/h 29.8 km/h 68 % 0 mm 568.0 W/m2 CLR
10:59 -12.6 °C -15.7 °C 34774.2 hPa NW 38.8 km/h 38.8 km/h 68 % 0 mm 545.0 W/m2 CLR
11:04 -12.6 °C -15.7 °C 34774.2 hPa NNW 41.7 km/h 41.7 km/h 68 % 0 mm 515.0 W/m2 CLR
11:09 -12.6 °C -15.7 °C 34774.2 hPa NW 35.7 km/h 35.7 km/h 68 % 0 mm 563.0 W/m2 CLR
11:14 -12.6 °C -15.8 °C 34774.2 hPa WNW 41.7 km/h 41.7 km/h 67 % 0 mm 162.0 W/m2 CLR
11:19 -12.6 °C -15.8 °C 34774.2 hPa NW 44.7 km/h 44.7 km/h 67 % 0 mm 162.0 W/m2 CLR
11:24 -12.8 °C -16.2 °C 34760.7 hPa WNW 32.8 km/h 32.8 km/h 66 % 0 mm 330.0 W/m2 CLR
11:29 -12.8 °C -16.1 °C 34760.7 hPa NNW 38.8 km/h 38.8 km/h 67 % 0 mm 392.0 W/m2 CLR
11:34 -12.2 °C -15.4 °C 34760.7 hPa NNW 44.7 km/h 44.7 km/h 67 % 0 mm 587.0 W/m2 CLR
11:39 -12.2 °C -15.7 °C 34760.7 hPa NW 41.7 km/h 41.7 km/h 65 % 0 mm 350.0 W/m2 CLR
11:44 -12.2 °C -15.7 °C 34760.7 hPa NW 44.7 km/h 44.7 km/h 65 % 0 mm 564.0 W/m2 CLR
11:49 -11.9 °C -15.4 °C 34760.7 hPa NW 38.8 km/h 38.8 km/h 65 % 0 mm 571.0 W/m2 CLR
Lo Temps de Massalio
Compliments of Weather Underground - 768 kb